DW2738 Weather Reports


Display with metric or nautical units.
time (UTC)temp
F
wind
direction
speed
MPH
gust
MPH
rain 1hr
in
rain 24hr
in
rain mn
in
humidity
%
barometer
mb
20260508225109 61 201 2.0 5.0 0.00 0.00 0.00 56 1011.0
20260508224607 61 159 3.0 5.0 0.00 0.00 0.00 55 1011.1
20260508224104 61 148 0.0 5.0 0.00 0.00 0.00 54 1011.0
20260508223602 61 207 6.0 8.0 0.00 0.00 0.00 53 1011.2
20260508223058 62 120 1.0 7.0 0.00 0.00 0.00 52 1011.0
20260508222556 62 139 4.0 7.0 0.00 0.00 0.00 52 1010.7
20260508222053 63 184 4.0 9.0 0.00 0.00 0.00 49 1010.9
20260508221549 63 221 4.0 5.0 0.00 0.00 0.00 49 1011.1
20260508221045 62 135 0.0 3.0 0.00 0.00 0.00 52 1010.8
20260508220542 63 117 4.0 7.0 0.00 0.00 0.00 50 1010.9
20260508220038 63 168 4.0 6.0 0.00 0.00 0.00 50 1010.8
20260508215535 64 129 2.0 2.0 0.00 0.00 0.00 49 1010.9
20260508215032 64 106 3.0 6.0 0.00 0.00 0.00 48 1010.8
20260508214529 66 124 3.0 3.0 0.00 0.00 0.00 43 1010.8
20260508214025 66 213 2.0 4.0 0.00 0.00 0.00 41 1010.9
20260508213523 66 235 3.0 4.0 0.00 0.00 0.00 42 1010.7
20260508213018 67 167 3.0 5.0 0.00 0.00 0.00 40 1010.8
20260508212515 67 211 3.0 5.0 0.00 0.00 0.00 41 1010.9
20260508212012 67 229 0.0 3.0 0.00 0.00 0.00 41 1010.9
20260508211507 67 230 3.0 5.0 0.00 0.00 0.00 40 1010.8
20260508211004 68 195 0.0 5.0 0.00 0.00 0.00 41 1010.6
20260508210501 67 279 3.0 5.0 0.00 0.00 0.00 41 1010.8
20260508205957 67 265 4.0 6.0 0.00 0.00 0.00 39 1010.8
20260508205454 68 272 5.0 8.0 0.00 0.00 0.00 39 1011.0
20260508204951 68 237 3.0 8.0 0.00 0.00 0.00 41 1010.7
20260508204448 68 184 4.0 14.0 0.00 0.00 0.00 39 1010.8
20260508203943 69 204 4.0 7.0 0.00 0.00 0.00 41 1010.8
20260508203440 70 228 5.0 6.0 0.00 0.00 0.00 37 1010.8
20260508202935 70 270 4.0 7.0 0.00 0.00 0.00 35 1010.9
20260508202433 70 270 0.0 6.0 0.00 0.00 0.00 36 1010.8
20260508201930 67 176 4.0 5.0 0.00 0.00 0.00 38 1010.9
20260508201426 67 261 0.0 6.0 0.00 0.00 0.00 39 1011.2
20260508200923 68 169 2.0 10.0 0.00 0.00 0.00 37 1011.1
20260508200420 70 239 2.0 8.0 0.00 0.00 0.00 35 1011.1
20260508195915 70 285 7.0 8.0 0.00 0.00 0.00 35 1011.1
20260508195413 71 257 7.0 7.0 0.00 0.00 0.00 34 1011.1
20260508194909 70 268 5.0 6.0 0.00 0.00 0.00 34 1011.0
20260508194406 70 194 1.0 8.0 0.00 0.00 0.00 36 1011.1
20260508193903 69 168 5.0 9.0 0.00 0.00 0.00 34 1011.2
20260508193400 70 284 3.0 9.0 0.00 0.00 0.00 33 1011.1
20260508192856 70 266 2.0 5.0 0.00 0.00 0.00 35 1011.5
20260508192353 69 261 0.0 9.0 0.00 0.00 0.00 36 1011.6
20260508191850 69 263 3.0 5.0 0.00 0.00 0.00 34 1011.6
20260508191348 70 253 4.0 5.0 0.00 0.00 0.00 33 1011.3
20260508190844 71 277 3.0 7.0 0.00 0.00 0.00 36 1011.4
20260508190341 70 242 4.0 11.0 0.00 0.00 0.00 36 1011.6
20260508185837 69 180 4.0 5.0 0.00 0.00 0.00 35 1011.6
20260508185335 69 236 3.0 12.0 0.00 0.00 0.00 33 1011.8
20260508184832 69 161 2.0 5.0 0.00 0.00 0.00 35 1011.8
20260508184329 69 225 2.0 7.0 0.00 0.00 0.00 34 1011.9
20260508183826 68 125 4.0 5.0 0.00 0.00 0.00 40 1011.8
20260508183323 68 225 3.0 7.0 0.00 0.00 0.00 41 1012.0
20260508182818 69 274 2.0 7.0 0.00 0.00 0.00 35 1012.0
20260508182315 67 264 3.0 7.0 0.00 0.00 0.00 37 1012.1
20260508181811 68 211 3.0 8.0 0.00 0.00 0.00 36 1012.0
20260508181308 69 264 3.0 8.0 0.00 0.00 0.00 33 1012.0
20260508180805 69 217 9.0 12.0 0.00 0.00 0.00 35 1012.1
20260508180302 69 237 5.0 6.0 0.00 0.00 0.00 36 1012.0
20260508175758 69 206 6.0 6.0 0.00 0.00 0.00 36 1012.2
20260508175255 69 312 2.0 6.0 0.00 0.00 0.00 36 1012.1
20260508174753 68 261 5.0 8.0 0.00 0.00 0.00 35 1012.1
20260508174250 70 117 1.0 7.0 0.00 0.00 0.00 39 1012.3
20260508173746 69 255 5.0 5.0 0.00 0.00 0.00 36 1012.4
20260508173242 68 355 1.0 7.0 0.00 0.00 0.00 40 1012.2
20260508172739 69 278 2.0 5.0 0.00 0.00 0.00 38 1012.4
20260508172236 69 278 2.0 5.0 0.00 0.00 0.00 38 1012.4
20260508171733 69 206 2.0 5.0 0.00 0.00 0.00 37 1012.4
20260508171229 68 130 3.0 5.0 0.00 0.00 0.00 36 1012.7
20260508170726 67 243 3.0 6.0 0.00 0.00 0.00 38 1012.8
20260508170224 67 243 3.0 6.0 0.00 0.00 0.00 38 1012.8
20260508165720 67 243 3.0 6.0 0.00 0.00 0.00 38 1012.8
20260508165217 67 229 3.0 5.0 0.00 0.00 0.00 38 1012.8
20260508163333 66 264 3.0 8.0 0.00 0.00 0.00 40 1013.2
20260508162829 66 264 3.0 8.0 0.00 0.00 0.00 40 1013.2
20260508162326 67 238 0.0 6.0 0.00 0.00 0.00 39 1013.0
20260508161823 67 237 5.0 6.0 0.00 0.00 0.00 36 1013.2
20260508161320 67 243 3.0 6.0 0.00 0.00 0.00 39 1013.4
20260508160817 68 295 2.0 4.0 0.00 0.00 0.00 40 1013.4
20260508160316 67 261 3.0 4.0 0.00 0.00 0.00 42 1013.2
20260508155812 66 228 5.0 6.0 0.00 0.00 0.00 39 1013.4
20260508155309 65 90 0.0 5.0 0.00 0.00 0.00 40 1013.2
20260508154806 67 251 2.0 5.0 0.00 0.00 0.00 38 1013.4
20260508154304 67 245 2.0 4.0 0.00 0.00 0.00 39 1013.3
20260508153800 67 352 2.0 6.0 0.00 0.00 0.00 42 1013.4
20260508153258 64 193 4.0 9.0 0.00 0.00 0.00 39 1013.4
20260508152753 66 180 4.0 5.0 0.00 0.00 0.00 40 1013.5
20260508152250 65 160 1.0 6.0 0.00 0.00 0.00 41 1013.4
20260508151746 65 274 5.0 7.0 0.00 0.00 0.00 46 1013.5
20260508151243 65 251 3.0 7.0 0.00 0.00 0.00 40 1013.8
20260508150739 63 202 3.0 8.0 0.00 0.00 0.00 42 1013.6
20260508150236 64 247 3.0 5.0 0.00 0.00 0.00 45 1013.9
20260508145732 63 219 3.0 4.0 0.00 0.00 0.00 40 1014.0
20260508145229 62 203 3.0 7.0 0.00 0.00 0.00 42 1014.2
20260508144726 63 191 2.0 6.0 0.00 0.00 0.00 40 1014.3
20260508144224 63 276 5.0 5.0 0.00 0.00 0.00 42 1014.0
20260508143721 64 270 2.0 4.0 0.00 0.00 0.00 40 1014.0
20260508143218 63 270 2.0 3.0 0.00 0.00 0.00 44 1014.2
20260508142714 62 216 3.0 9.0 0.00 0.00 0.00 44 1014.0
20260508142211 61 233 2.0 6.0 0.00 0.00 0.00 44 1014.0
20260508141708 62 243 3.0 5.0 0.00 0.00 0.00 44 1014.1
20260508141205 62 286 0.0 4.0 0.00 0.00 0.00 51 1014.0
20260508140702 61 174 0.0 4.0 0.00 0.00 0.00 47 1014.1
20260508140159 61 174 0.0 4.0 0.00 0.00 0.00 47 1014.1
20260508135655 61 250 4.0 5.0 0.00 0.00 0.00 48 1014.3
20260508135150 61 240 3.0 4.0 0.00 0.00 0.00 47 1014.1
20260508134647 62 348 4.0 4.0 0.00 0.00 0.00 51 1014.0
20260508134144 60 231 3.0 3.0 0.00 0.00 0.00 46 1014.3
20260508133641 59 205 5.0 5.0 0.00 0.00 0.00 49 1014.1
20260508133138 61 228 2.0 3.0 0.00 0.00 0.00 49 1014.1
20260508132636 60 336 2.0 4.0 0.00 0.00 0.00 54 1014.2
20260508132133 60 270 0.0 3.0 0.00 0.00 0.00 50 1014.2
20260508131628 60 326 0.0 3.0 0.00 0.00 0.00 58 1014.1
20260508131125 59 218 2.0 4.0 0.00 0.00 0.00 58 1014.3
20260508130622 60 270 0.0 3.0 0.00 0.00 0.00 63 1014.2
20260508130119 59 17 0.0 3.0 0.00 0.00 0.00 56 1014.3
20260508125619 59 343 3.0 3.0 0.00 0.00 0.00 61 1014.5
20260508125117 58 217 3.0 4.0 0.00 0.00 0.00 60 1014.3
20260508124615 58 270 0.0 3.0 0.00 0.00 0.00 64 1014.3
20260508124112 57 260 2.0 4.0 0.00 0.00 0.00 61 1014.3
20260508123610 58 355 0.0 3.0 0.00 0.00 0.00 65 1014.2
20260508123107 57 241 2.0 5.0 0.00 0.00 0.00 65 1014.3
20260508122603 58 279 0.0 3.0 0.00 0.00 0.00 66 1014.2
20260508122101 57 270 2.0 3.0 0.00 0.00 0.00 65 1014.2
20260508121559 58 265 2.0 3.0 0.00 0.00 0.00 66 1014.2
20260508121057 57 187 0.0 2.0 0.00 0.00 0.00 69 1014.1
20260508120554 57 236 2.0 3.0 0.00 0.00 0.00 67 1014.1
20260508120052 56 346 0.0 2.0 0.00 0.00 0.00 70 1013.8
20260508115549 56 90 0.0 1.0 0.00 0.00 0.00 71 1014.0
20260508115046 56 90 0.0 2.0 0.00 0.00 0.00 70 1014.1
20260508114543 55 270 0.0 2.0 0.00 0.00 0.00 75 1014.2
20260508114039 55 195 0.0 0.0 0.00 0.00 0.00 73 1013.9
20260508113537 54 195 0.0 1.0 0.00 0.00 0.00 80 1014.0
20260508113035 51 355 0.0 1.0 0.00 0.00 0.00 86 1013.9
20260508112530 48 337 0.0 0.0 0.00 0.00 0.00 92 1014.0
20260508112027 47 345 0.0 0.0 0.00 0.00 0.00 96 1013.8
20260508111525 45 270 0.0 0.0 0.00 0.00 0.00 97 1013.6
20260508111021 45 270 0.0 0.0 0.00 0.00 0.00 97 1013.6
20260508110520 43 270 0.0 0.0 0.00 0.00 0.00 97 1013.5
20260508110015 43 270 0.0 0.0 0.00 0.00 0.00 97 1013.5
20260508105510 42 270 0.0 1.0 0.00 0.00 0.00 97 1013.8
20260508105008 42 240 1.0 1.0 0.00 0.00 0.00 97 1013.4
20260508104506 42 255 0.0 1.0 0.00 0.00 0.00 97 1013.6
20260508104002 41 254 0.0 0.0 0.00 0.00 0.00 97 1013.2
20260508103459 41 278 0.0 0.0 0.00 0.00 0.00 97 1013.1
20260508102955 42 278 0.0 0.0 0.00 0.00 0.00 97 1013.1
20260508102454 42 278 0.0 0.0 0.00 0.00 0.00 97 1013.0
20260508101951 42 278 0.0 0.0 0.00 0.00 0.00 97 1013.2
20260508101448 42 278 0.0 1.0 0.00 0.00 0.00 97 1013.0
20260508100945 42 246 0.0 0.0 0.00 0.00 0.00 97 1013.0
20260508100444 42 246 0.0 0.0 0.00 0.00 0.00 97 1012.9
20260508095939 43 246 0.0 0.0 0.00 0.00 0.00 97 1012.9
20260508095438 43 246 0.0 0.0 0.00 0.00 0.00 97 1012.8
20260508094934 43 246 0.0 1.0 0.00 0.00 0.00 97 1012.7
20260508094431 43 194 0.0 0.0 0.00 0.00 0.00 98 1012.6
20260508093927 43 194 0.0 1.0 0.00 0.00 0.00 98 1012.4
20260508093425 43 215 0.0 1.0 0.00 0.00 0.00 99 1012.6
20260508092923 43 243 0.0 1.0 0.00 0.00 0.00 99 1012.5
20260508092421 43 249 0.0 2.0 0.00 0.00 0.00 99 1012.5
20260508091919 43 187 0.0 2.0 0.00 0.00 0.00 99 1012.1
20260508091415 43 270 1.0 1.0 0.00 0.00 0.00 99 1012.3
20260508090912 43 203 0.0 1.0 0.00 0.00 0.00 99 1012.0
20260508090411 43 254 0.0 0.0 0.00 0.00 0.00 99 1012.1
20260508085912 44 270 0.0 1.0 0.00 0.00 0.00 99 1011.8
20260508085409 44 203 0.0 1.0 0.00 0.00 0.00 99 1011.7
20260508084905 44 168 0.0 2.0 0.00 0.00 0.00 99 1011.7
20260508084402 44 237 0.0 2.0 0.00 0.00 0.00 99 1011.7
20260508083900 44 270 0.0 1.0 0.00 0.00 0.00 99 1011.4
20260508083357 44 237 0.0 3.0 0.00 0.00 0.00 99 1011.3
20260508082856 44 254 0.0 0.0 0.00 0.00 0.00 99 1011.1
20260508082355 44 255 1.0 2.0 0.00 0.00 0.00 99 1011.2
20260508081852 44 340 0.0 1.0 0.00 0.00 0.00 99 1011.1
20260508081348 43 254 0.0 0.0 0.00 0.00 0.00 99 1010.9
20260508080846 43 346 0.0 1.0 0.00 0.00 0.00 99 1010.8
20260508080343 43 331 2.0 2.0 0.00 0.00 0.00 99 1010.6
20260508075840 43 254 0.0 0.0 0.00 0.00 0.00 99 1010.4
20260508075337 43 257 0.0 0.0 0.00 0.00 0.00 99 1010.1
20260508074835 43 257 0.0 0.0 0.00 0.00 0.00 99 1010.3
20260508074331 43 257 0.0 0.0 0.00 0.00 0.00 99 1010.0
20260508073828 43 246 0.0 0.0 0.00 0.00 0.00 99 1010.0
20260508073326 43 331 0.0 1.0 0.00 0.00 0.00 99 1010.0
20260508072822 43 254 0.0 0.0 0.00 0.00 0.00 99 1010.0
20260508072319 44 187 0.0 0.0 0.00 0.00 0.00 99 1009.8
20260508071817 44 249 0.0 1.0 0.00 0.00 0.00 99 1009.8
20260508071315 44 206 0.0 0.0 0.00 0.00 0.00 99 1009.5
20260508070812 44 246 0.0 0.0 0.00 0.00 0.00 99 1009.5
20260508070310 44 246 0.0 0.0 0.00 0.00 0.00 99 1009.6
20260508065807 44 246 0.0 0.0 0.00 0.00 0.00 99 1009.6
20260508065307 44 246 0.0 0.0 0.00 0.00 0.00 99 1009.5
20260508064803 44 246 0.0 0.0 0.00 0.00 0.00 99 1009.7
20260508064301 45 254 0.0 0.0 0.00 0.00 0.00 99 1009.6
20260508063758 45 254 0.0 0.0 0.00 0.00 0.00 99 1009.7
20260508063256 45 270 0.0 0.0 0.00 0.00 0.00 99 1009.5
20260508062753 45 257 0.0 0.0 0.00 0.00 0.00 99 1009.5
20260508062251 45 257 0.0 0.0 0.00 0.00 0.00 99 1009.4
20260508061747 46 257 1.0 2.0 0.00 0.00 0.00 99 1009.6
20260508061244 45 209 0.0 1.0 0.00 0.00 0.00 99 1009.4
20260508060741 45 187 0.0 2.0 0.00 0.00 0.00 99 1009.3
20260508060239 45 195 0.0 0.0 0.00 0.00 0.00 99 1009.6
20260508055733 45 254 0.0 0.0 0.00 0.00 0.00 99 1009.4
20260508055231 45 254 0.0 0.0 0.00 0.00 0.00 99 1009.5
20260508054727 45 254 0.0 0.0 0.00 0.00 0.00 99 1009.5
20260508054226 45 203 0.0 0.0 0.00 0.00 0.00 99 1009.3
20260508053722 45 203 0.0 0.0 0.00 0.00 0.00 99 1009.3
20260508053220 45 203 0.0 1.0 0.00 0.00 0.00 99 1009.4
20260508052716 45 194 0.0 1.0 0.00 0.00 0.00 99 1009.8
20260508052213 45 203 0.0 0.0 0.00 0.00 0.00 99 1009.6
20260508051710 45 203 0.0 1.0 0.00 0.00 0.00 99 1009.7
20260508051205 45 209 0.0 0.0 0.00 0.00 0.00 99 1009.6
20260508050702 45 209 0.0 0.0 0.00 0.00 0.00 99 1009.6
20260508050159 45 240 0.0 0.0 0.00 0.00 0.00 99 1009.6
20260508045654 46 240 0.0 0.0 0.00 0.00 0.00 99 1009.7
20260508045153 46 169 0.0 1.0 0.00 0.00 0.00 99 1009.6
20260508044650 46 180 0.0 1.0 0.00 0.00 0.00 99 1009.3
20260508044146 45 270 0.0 0.0 0.00 0.00 0.00 99 1009.6
20260508043642 46 209 0.0 1.0 0.00 0.00 0.00 99 1009.4
20260508043140 46 240 0.0 1.0 0.00 0.00 0.00 99 1009.4
20260508042637 46 206 0.0 1.0 0.00 0.00 0.00 99 1009.6
20260508042134 46 195 0.0 0.0 0.00 0.00 0.00 99 1009.6
20260508041630 46 195 0.0 0.0 0.00 0.00 0.00 99 1009.6
20260508041127 46 240 1.0 1.0 0.00 0.00 0.00 98 1009.4
20260508040623 46 195 0.0 0.0 0.00 0.00 0.00 98 1009.3
20260508040121 46 187 0.0 0.0 0.00 0.00 0.00 98 1009.3
20260508035618 46 234 0.0 2.0 0.00 0.30 0.30 98 1009.5
20260508035116 46 234 0.0 0.0 0.00 0.30 0.30 98 1009.6
20260508034612 46 234 0.0 1.0 0.00 0.30 0.30 98 1009.3
20260508034109 46 151 0.0 1.0 0.00 0.30 0.30 98 1009.4
20260508033607 46 195 0.0 1.0 0.00 0.30 0.30 98 1009.5
20260508033105 46 196 0.0 2.0 0.00 0.30 0.30 97 1009.5
20260508032601 46 194 0.0 1.0 0.00 0.30 0.30 97 1009.3
20260508032059 46 345 0.0 0.0 0.00 0.30 0.30 97 1009.5
20260508031556 47 74 0.0 0.0 0.00 0.30 0.30 97 1009.6
20260508031051 46 135 2.0 2.0 0.00 0.30 0.30 97 1009.4
20260508030548 47 345 0.0 1.0 0.00 0.30 0.30 97 1009.6
20260508030046 47 229 0.0 0.0 0.00 0.30 0.30 97 1009.5
20260508025542 47 195 0.0 0.0 0.00 0.30 0.30 96 1009.4
20260508025039 47 195 0.0 0.0 0.00 0.30 0.30 96 1009.7
20260508024535 47 195 0.0 0.0 0.00 0.30 0.30 96 1009.6
20260508024033 47 172 0.0 0.0 0.00 0.30 0.30 96 1009.5
20260508023529 47 261 0.0 0.0 0.00 0.30 0.30 96 1009.6
20260508023026 47 261 0.0 0.0 0.00 0.30 0.30 95 1009.5
20260508022522 48 261 0.0 0.0 0.00 0.30 0.30 95 1009.3
20260508022019 48 254 0.0 0.0 0.00 0.30 0.30 95 1009.3
20260508021515 48 254 0.0 0.0 0.00 0.30 0.30 95 1009.5
20260508021011 48 254 0.0 0.0 0.00 0.30 0.30 94 1009.7
20260508020509 48 254 0.0 0.0 0.00 0.30 0.30 94 1009.4
20260508020006 48 254 0.0 0.0 0.00 0.30 0.30 93 1009.4
20260508015504 48 254 0.0 0.0 0.00 0.30 0.30 93 1009.4
20260508015000 48 195 0.0 0.0 0.00 0.30 0.30 93 1009.2
20260508014457 49 195 0.0 0.0 0.00 0.30 0.30 92 1009.2
20260508013953 49 195 0.0 0.0 0.00 0.30 0.30 92 1009.0
20260508013449 49 195 0.0 0.0 0.00 0.30 0.30 91 1009.1
20260508012947 49 195 0.0 0.0 0.00 0.30 0.30 91 1009.2
20260508012443 50 195 0.0 0.0 0.00 0.30 0.30 91 1009.0
20260508011941 50 106 0.0 0.0 0.00 0.30 0.30 90 1009.1
20260508011438 50 106 0.0 0.0 0.00 0.30 0.30 89 1009.3
20260508010936 50 106 0.0 1.0 0.00 0.30 0.30 89 1009.3
20260508010433 50 186 0.0 1.0 0.00 0.30 0.30 88 1009.0
20260508005930 51 216 0.0 1.0 0.00 0.30 0.30 88 1009.0
20260508005427 51 216 0.0 2.0 0.00 0.30 0.30 87 1008.8
20260508004923 51 353 0.0 0.0 0.00 0.30 0.30 86 1008.9
20260508004419 52 74 0.0 1.0 0.00 0.30 0.30 85 1008.9
20260508003916 52 195 0.0 1.0 0.00 0.30 0.30 84 1008.9
20260508003413 53 203 0.0 0.0 0.00 0.30 0.30 83 1008.9
20260508002911 53 203 0.0 1.0 0.00 0.30 0.30 83 1008.7
20260508002407 53 194 0.0 1.0 0.00 0.30 0.30 82 1008.5
20260508001903 54 188 0.0 2.0 0.00 0.30 0.30 80 1008.6
20260508001359 54 257 0.0 2.0 0.00 0.30 0.30 80 1008.3
20260508000856 54 198 0.0 3.0 0.00 0.30 0.30 80 1008.2
20260508000352 54 195 0.0 2.0 0.00 0.30 0.30 79 1008.3
20260507235848 55 352 0.0 0.0 0.00 0.30 0.30 79 1008.2
20260507235346 55 151 0.0 1.0 0.00 0.30 0.30 77 1008.4
20260507234843 56 165 1.0 4.0 0.00 0.30 0.30 76 1008.4
20260507234339 56 246 0.0 2.0 0.00 0.30 0.30 75 1008.2
20260507233836 56 130 2.0 3.0 0.00 0.30 0.30 75 1008.2
20260507233333 57 185 1.0 3.0 0.00 0.30 0.30 75 1008.2
20260507232832 57 168 0.0 4.0 0.00 0.30 0.30 75 1008.1
20260507232327 57 117 4.0 5.0 0.00 0.30 0.30 74 1008.2
20260507231819 57 103 2.0 5.0 0.00 0.30 0.30 73 1007.9
20260507231316 57 103 2.0 5.0 0.00 0.30 0.30 73 1007.9
20260507230812 57 204 2.0 5.0 0.00 0.30 0.30 73 1007.9
20260507230310 57 246 3.0 4.0 0.00 0.30 0.30 72 1007.7
20260507225810 58 229 3.0 6.0 0.00 0.30 0.30 71 1007.7
20260507225306 58 229 3.0 6.0 0.00 0.30 0.30 71 1007.7